| time (UTC) | temp F | wind direction | speed knots | gust knots | rain 1hr in | rain 24hr in | rain mn in | humidity % | barometer mb |
| 20260504110130 | 65 | 6 | 3.5 | 12.2 | 0.00 | 0.00 | 0.00 | 36 | 1018.2 |
| 20260504090130 | 62 | 302 | 3.5 | 8.7 | 0.00 | 0.00 | 0.00 | 41 | 1018.8 |
| 20260504081630 | 59 | 71 | 0.0 | 3.5 | 0.00 | 0.00 | 0.00 | 47 | 1018.7 |
| 20260504080132 | 59 | 282 | 1.7 | 6.1 | 0.00 | 0.00 | 0.00 | 48 | 1018.8 |
| 20260504070131 | 58 | 0 | 0.9 | 5.2 | 0.00 | 0.00 | 0.00 | 53 | 1018.5 |
| 20260504050129 | 52 | 307 | 0.0 | 2.6 | 0.00 | 0.02 | 0.00 | 64 | 1018.0 |
| 20260504044629 | 50 | 171 | 0.0 | 1.7 | 0.00 | 0.02 | 0.00 | 69 | 1017.9 |
| 20260504043129 | 49 | 82 | 0.0 | 0.0 | 0.00 | 0.03 | 0.00 | 70 | 1017.9 |
| 20260504041634 | 48 | 173 | 0.0 | 0.0 | 0.00 | 0.04 | 0.00 | 71 | 1017.8 |
| 20260504040131 | 49 | 173 | 0.0 | 0.0 | 0.00 | 0.04 | 0.00 | 70 | 1017.8 |
| 20260504034624 | 49 | 161 | 0.0 | 0.0 | 0.00 | 0.04 | 0.00 | 70 | 1017.5 |
| 20260504033123 | 48 | 161 | 0.0 | 0.0 | 0.00 | 0.04 | 0.00 | 70 | 1017.4 |
| 20260504031626 | 49 | 155 | 0.0 | 0.0 | 0.00 | 0.04 | 0.00 | 69 | 1017.3 |
| 20260504030127 | 49 | 155 | 0.0 | 0.0 | 0.00 | 0.04 | 0.00 | 68 | 1017.4 |
| 20260504023122 | 49 | 159 | 0.0 | 1.7 | 0.00 | 0.04 | 0.00 | 66 | 1017.3 |
| 20260504021618 | 49 | 137 | 0.0 | 1.7 | 0.00 | 0.04 | 0.00 | 66 | 1017.3 |
| 20260504020135 | 50 | 169 | 0.0 | 1.7 | 0.00 | 0.04 | 0.00 | 65 | 1017.5 |
| 20260504014625 | 50 | 114 | 0.0 | 2.6 | 0.00 | 0.04 | 0.00 | 64 | 1017.6 |
| 20260504011611 | 51 | 48 | 1.7 | 3.5 | 0.00 | 0.04 | 0.00 | 62 | 1017.4 |
| 20260504010118 | 50 | 162 | 0.0 | 1.7 | 0.00 | 0.04 | 0.00 | 62 | 1017.4 |
| 20260504004610 | 50 | 148 | 0.9 | 2.6 | 0.00 | 0.04 | 0.00 | 62 | 1017.5 |
| 20260504003119 | 50 | 164 | 0.9 | 1.7 | 0.00 | 0.04 | 0.00 | 62 | 1017.4 |
| 20260504001613 | 51 | 175 | 1.7 | 3.5 | 0.00 | 0.04 | 0.00 | 61 | 1017.3 |
| 20260504000110 | 51 | 178 | 0.0 | 1.7 | 0.00 | 0.04 | 0.00 | 62 | 1017.5 |
| 20260503234612 | 51 | 90 | 0.9 | 2.6 | 0.00 | 0.04 | 0.00 | 62 | 1017.6 |
| 20260503233104 | 51 | 117 | 0.0 | 3.5 | 0.00 | 0.04 | 0.00 | 63 | 1017.5 |
| 20260503231602 | 50 | 185 | 0.0 | 1.7 | 0.00 | 0.04 | 0.00 | 63 | 1017.6 |
| 20260503230105 | 51 | 333 | 0.0 | 1.7 | 0.00 | 0.04 | 0.00 | 63 | 1017.5 |
| 20260503224607 | 51 | 336 | 0.9 | 3.5 | 0.00 | 0.05 | 0.00 | 62 | 1017.5 |
| 20260503223107 | 50 | 62 | 0.9 | 1.7 | 0.00 | 0.05 | 0.00 | 63 | 1017.4 |
| 20260503221602 | 50 | 333 | 0.0 | 1.7 | 0.00 | 0.05 | 0.00 | 64 | 1017.6 |
| 20260503220103 | 51 | 0 | 0.0 | 1.7 | 0.00 | 0.05 | 0.00 | 63 | 1017.6 |
| 20260503214602 | 51 | 0 | 0.9 | 3.5 | 0.00 | 0.05 | 0.00 | 61 | 1017.9 |
| 20260503211602 | 52 | 0 | 1.7 | 3.5 | 0.00 | 0.05 | 0.00 | 61 | 1017.6 |
| 20260503204602 | 52 | 338 | 0.0 | 4.3 | 0.00 | 0.05 | 0.05 | 61 | 1017.9 |
| 20260503203111 | 52 | 334 | 1.7 | 6.1 | 0.00 | 0.05 | 0.05 | 60 | 1017.9 |
| 20260503201603 | 53 | 295 | 3.5 | 7.8 | 0.00 | 0.05 | 0.05 | 60 | 1018.0 |
| 20260503194604 | 53 | 327 | 2.6 | 7.8 | 0.00 | 0.05 | 0.05 | 58 | 1017.8 |
| 20260503191602 | 53 | 336 | 4.3 | 10.4 | 0.00 | 0.05 | 0.05 | 57 | 1017.8 |
| 20260503184603 | 53 | 302 | 4.3 | 9.6 | 0.00 | 0.05 | 0.05 | 57 | 1017.4 |
| 20260503183102 | 53 | 3 | 3.5 | 8.7 | 0.00 | 0.05 | 0.05 | 58 | 1017.2 |
| 20260503181603 | 54 | 0 | 2.6 | 8.7 | 0.00 | 0.05 | 0.05 | 58 | 1017.0 |
| 20260503174603 | 54 | 329 | 1.7 | 6.1 | 0.00 | 0.05 | 0.05 | 56 | 1016.7 |
| 20260503173104 | 54 | 0 | 2.6 | 8.7 | 0.00 | 0.05 | 0.05 | 55 | 1016.4 |
| 20260503171602 | 54 | 312 | 2.6 | 9.6 | 0.00 | 0.05 | 0.05 | 54 | 1016.5 |
| 20260503160106 | 55 | 8 | 7.0 | 12.2 | 0.00 | 0.05 | 0.05 | 53 | 1015.6 |
| 20260503140110 | 56 | 0 | 7.0 | 14.8 | 0.00 | 0.05 | 0.05 | 50 | 1015.2 |